Location: Castelbiague
(43.0361°N, 0.9246°E)
Time: 14:27:24
(UTC+00:00)

FALCON 9 DEB - Pass Details

Date: 17 June 2021
Orbit: 358 x 375 km, 53.0° (Epoch: 30 July)

Event Time Altitude Azimuth Distance (km) Brightness Sun altitude
Exits shadow 22:17:59 16° 248° (WSW) 1,103 5.2 -19.7°
Maximum altitude 22:20:21 61° 327° (NNW) 442 3.3 -19.9°
Drops below altitude 10° 22:23:28 10° 49° (NE) 1,411 5.9 -20.1°
Sets 22:25:33 0° 53° (NE) 2,266 7.0 -20.3°
